Location: Huntsville
(41.2590°N, 111.7678°W)
Time: 07:19:07
(UTC+00:00)

Envisat - Pass Details

Date: 05 December 2021
Orbit: 764 x 766 km, 98.2° (Epoch: 18 January)

Event Time Altitude Azimuth Distance (km) Brightness Sun altitude
Rises 11:36:59 0° 24° (NNE) 3,240 6.5 -33.2°
Reaches altitude 10° 11:39:37 10° 36° (NE) 2,309 5.8 -32.7°
Maximum altitude 11:43:58 28° 95° (E) 1,409 4.9 -31.9°
Drops below altitude 10° 11:48:16 10° 154° (SSE) 2,294 5.8 -31.1°
Sets 11:50:52 0° 166° (SSE) 3,214 6.4 -30.6°
